Weather History for Hatteras, NC

Change the Weather History Date:

Sunday, February 24, 2013

  Actual Average Record
Temperature  
Mean Temperature 45 °F 48 °F  
Max Temperature 51 °F 55 °F 75 °F (1975)
Min Temperature 38 °F 41 °F 21 °F (1964)
Degree Days  
Heating Degree Days 20 17  
Month to date heating degree days 411 443  
Since 1 July heating degree days 1672 1856  
Cooling Degree Days 0 0  
Month to date cooling degree days 0 0  
Year to date cooling degree days 0 0  
Moisture  
Dew Point 45 °F    
Average Humidity 90    
Maximum Humidity 100    
Minimum Humidity 80    
Precipitation  
Precipitation 0.04 in 0.14 in 1.22 in (1963)
Month to date precipitation 6.60 3.45  
Year to date precipitation 8.77 8.69  
Snow  
Snow 0.00 in - - ()
Month to date snowfall 0.0  
Since 1 July snowfall 0.0  
Snow Depth 0.00 in    
Sea Level Pressure  
Sea Level Pressure 29.84 in    
Wind  
Wind Speed 5 mph (NW)    
Max Wind Speed 12 mph    
Max Gust Speed 18 mph    
Visibility 5 miles    
Events Fog , Rain    
T = Trace of Precipitation, MM = Missing Value Source: NWS Daily Summary

Daily Weather History Graph

Daily Weather History Graph

Search for Another Location

Airport:

Trip Planner

Search our weather history database for the weather conditions in past years. The results will help you decide how hot, cold, wet, or windy it might be!

Date:

Astronomy

Feb. 24, 2013 Rise Set
Actual Time 6:38 AM EST 5:53 PM EST
Civil Twilight 6:12 AM EST 6:19 PM EST
Nautical Twilight 5:43 AM EST 6:48 PM EST
Astronomical Twilight 5:13 AM EST 7:18 PM EST
Moon 5:02 PM EST (2/24) 5:33 AM EST (2/24)
Length of Visible Light 12h 06m
Length of Day
11h 15m
Waxing Gibbous, 99% of the Moon is Illuminated
Feb 24
Waxing Gibbous
Feb 25
Full
Mar 4
Last Quarter
Mar 11
New
Mar 19
First Quarter

Hourly Weather History & Observations

Time (EST) Temp. Windchill Dew Point Humidity Pressure Visibility Wind Dir Wind Speed Gust Speed Precip Events Conditions
12:11 AM 46.4 °F 45.2 °F 46.4 °F 100% 29.81 in 2.0 mi NW 3.5 mph - N/A   Overcast
12:24 AM 46.4 °F 42.9 °F 46.4 °F 100% 29.82 in 1.2 mi NW 6.9 mph - N/A   Overcast
12:40 AM 46.4 °F 44.3 °F 46.4 °F 100% 29.81 in 0.5 mi NW 4.6 mph - N/A Fog Fog
12:51 AM 46.9 °F - 46.9 °F 100% 29.82 in 0.5 mi WNW 5.8 mph - N/A Fog Fog
1:08 AM 46.4 °F 44.3 °F 46.4 °F 100% 29.80 in 0.2 mi NW 4.6 mph - N/A Fog Fog
1:23 AM 46.4 °F 44.3 °F 46.4 °F 100% 29.80 in 0.5 mi NW 4.6 mph - N/A Fog Fog
1:51 AM 46.9 °F - 46.9 °F 100% 29.80 in 0.5 mi West 5.8 mph - N/A Fog Fog
2:05 AM 46.4 °F 44.3 °F 46.4 °F 100% 29.79 in 1.5 mi Variable 4.6 mph - 0.00 in Rain Light Rain
2:15 AM 46.4 °F 44.3 °F 46.4 °F 100% 29.78 in 1.0 mi WSW 4.6 mph - 0.00 in Rain Light Rain
2:35 AM 46.4 °F - 46.4 °F 100% 29.76 in 1.8 mi Calm Calm - 0.00 in   Overcast
2:47 AM 46.4 °F 44.3 °F 46.4 °F 100% 29.79 in 1.0 mi West 4.6 mph - 0.00 in   Overcast
2:51 AM 46.9 °F - 46.9 °F 100% 29.77 in 1.0 mi Variable 3.5 mph - 0.00 in   Overcast
3:34 AM 46.4 °F 42.4 °F 46.4 °F 100% 29.79 in 1.8 mi WNW 8.1 mph - N/A   Overcast
3:47 AM 46.4 °F 42.9 °F 46.4 °F 100% 29.78 in 3.0 mi WNW 6.9 mph - N/A   Overcast
3:51 AM 46.0 °F 41.4 °F 46.0 °F 100% 29.78 in 4.0 mi NW 9.2 mph - N/A   Overcast
4:07 AM 46.4 °F 43.5 °F 46.4 °F 100% 29.77 in 2.5 mi NW 5.8 mph - N/A   Overcast
4:16 AM 46.4 °F 42.9 °F 46.4 °F 100% 29.77 in 4.0 mi NW 6.9 mph - N/A   Overcast
4:37 AM 46.4 °F 44.3 °F 46.4 °F 100% 29.78 in 2.0 mi NW 4.6 mph - N/A   Overcast
4:51 AM 46.0 °F 44.8 °F 46.0 °F 100% 29.78 in 2.0 mi NW 3.5 mph - N/A   Overcast
5:13 AM 46.4 °F - 46.4 °F 100% 29.76 in 1.2 mi Calm Calm - N/A   Overcast
5:25 AM 46.4 °F 45.2 °F 46.4 °F 100% 29.78 in 0.8 mi WNW 3.5 mph - N/A   Overcast
5:31 AM 46.4 °F 45.2 °F 46.4 °F 100% 29.78 in 1.5 mi NW 3.5 mph - N/A   Overcast
5:42 AM 46.4 °F 45.2 °F 46.4 °F 100% 29.78 in 1.0 mi NW 3.5 mph - N/A   Mist
5:51 AM 46.9 °F - 46.0 °F 97% 29.79 in 1.0 mi NNW 5.8 mph - N/A   Mist
6:06 AM 46.4 °F 43.5 °F 46.4 °F 100% 29.79 in 1.5 mi Variable 5.8 mph - N/A   Overcast
6:28 AM 46.4 °F 42.9 °F 46.4 °F 100% 29.80 in 2.5 mi NNW 6.9 mph - N/A   Overcast
6:51 AM 46.0 °F 42.5 °F 46.0 °F 100% 29.82 in 2.0 mi NW 6.9 mph - N/A   Overcast
7:05 AM 46.4 °F 42.4 °F 44.6 °F 93% 29.82 in 1.5 mi NNW 8.1 mph 16.1 mph 0.00 in Rain Light Rain
7:20 AM 46.4 °F 42.4 °F 44.6 °F 93% 29.84 in 3.0 mi NNW 8.1 mph 18.4 mph 0.01 in Rain Light Rain
7:30 AM 46.4 °F 42.4 °F 44.6 °F 93% 29.84 in 2.5 mi NNW 8.1 mph - 0.01 in Rain Light Rain
7:44 AM 44.6 °F 40.7 °F 44.6 °F 100% 29.85 in 3.0 mi NNW 6.9 mph - 0.01 in Rain Light Rain
7:51 AM 45.0 °F 41.2 °F 45.0 °F 100% 29.86 in 3.0 mi NW 6.9 mph - 0.01 in   Overcast
8:09 AM 44.6 °F 42.2 °F 44.6 °F 100% 29.84 in 8.0 mi NNW 4.6 mph - 0.03 in Rain Light Rain
8:51 AM 46.0 °F 43.1 °F 45.0 °F 96% 29.86 in 10.0 mi NW 5.8 mph - 0.03 in   Overcast
9:03 AM 46.4 °F 43.5 °F 44.6 °F 93% 29.85 in 10.0 mi NW 5.8 mph - N/A   Mostly Cloudy
9:33 AM 48.2 °F - 44.6 °F 87% 29.86 in 10.0 mi NW 8.1 mph - N/A   Mostly Cloudy
9:51 AM 46.9 °F - 44.1 °F 90% 29.88 in 10.0 mi NW 11.5 mph 16.1 mph N/A   Overcast
10:51 AM 46.9 °F - 45.0 °F 93% 29.91 in 10.0 mi NNW 8.1 mph - N/A   Overcast
11:51 AM 48.0 °F - 44.1 °F 86% 29.90 in 10.0 mi Variable 6.9 mph - N/A   Overcast
12:51 PM 48.0 °F - 44.1 °F 86% 29.91 in 10.0 mi NNW 5.8 mph - N/A   Overcast
1:51 PM 48.9 °F - 44.1 °F 83% 29.90 in 10.0 mi NW 5.8 mph - N/A   Overcast
2:09 PM 48.2 °F - 44.6 °F 87% 29.89 in 10.0 mi Variable 4.6 mph - N/A   Overcast
2:51 PM 48.9 °F - 44.1 °F 83% 29.90 in 10.0 mi NW 6.9 mph - N/A   Overcast
3:51 PM 50.0 °F - 44.1 °F 80% 29.90 in 10.0 mi North 5.8 mph - N/A   Overcast
4:34 PM 50.0 °F - 44.6 °F 82% 29.90 in 10.0 mi NNE 5.8 mph - N/A   Scattered Clouds
4:51 PM 50.0 °F - 44.1 °F 80% 29.91 in 10.0 mi NNE 4.6 mph - N/A   Clear
5:51 PM 46.0 °F - 42.1 °F 86% 29.93 in 10.0 mi Calm Calm - N/A   Clear
6:51 PM 44.1 °F 42.5 °F 41.0 °F 89% 29.96 in 9.0 mi NE 3.5 mph - N/A   Clear
7:51 PM 45.0 °F 42.6 °F 43.0 °F 93% 29.97 in 10.0 mi NNE 4.6 mph - N/A   Clear
8:51 PM 43.0 °F - 42.1 °F 97% 29.99 in 8.0 mi Calm Calm - N/A   Clear
9:51 PM 39.9 °F - 37.9 °F 93% 30.00 in 5.0 mi Calm Calm - N/A   Clear
10:51 PM 39.0 °F - 37.0 °F 93% 30.00 in 4.0 mi Calm Calm - N/A   Clear
11:51 PM 39.9 °F 36.7 °F 37.9 °F 93% 30.01 in 4.0 mi SW 4.6 mph - N/A   Clear